timestamp,waterbody_station,lease,latitude,longitude,deployment_start_date,deployment_end_date,sensor,depth,mooring,Temperature_degrees Celsius,Salinity_practical salinity units,Dissolved Oxygen_percent saturation
2022-08-19T00:00:00,St. Mary's Bay-Centreville,,44.536239,-66.00172,2022-06-07,2022-08-22,aquaMeasure-670375,3.5,float,17.62,,110.3
2022-08-19T00:10:00,St. Mary's Bay-Centreville,,44.536239,-66.00172,2022-06-07,2022-08-22,aquaMeasure-670375,3.5,float,17.73,,111.9
2022-08-19T00:20:00,St. Mary's Bay-Centreville,,44.536239,-66.00172,2022-06-07,2022-08-22,aquaMeasure-670375,3.5,float,17.84,,109.8
2022-08-19T00:30:00,St. Mary's Bay-Centreville,,44.536239,-66.00172,2022-06-07,2022-08-22,aquaMeasure-670375,3.5,float,17.86,,109.4
2022-08-19T00:40:00,St. Mary's Bay-Centreville,,44.536239,-66.00172,2022-06-07,2022-08-22,aquaMeasure-670375,3.5,float,17.86,,109.5
2022-08-19T00:50:00,St. Mary's Bay-Centreville,,44.536239,-66.00172,2022-06-07,2022-08-22,aquaMeasure-670375,3.5,float,17.86,,109.5
2022-08-19T01:00:00,St. Mary's Bay-Centreville,,44.536239,-66.00172,2022-06-07,2022-08-22,aquaMeasure-670375,3.5,float,17.88,,108.6
2022-08-19T01:10:00,St. Mary's Bay-Centreville,,44.536239,-66.00172,2022-06-07,2022-08-22,aquaMeasure-670375,3.5,float,17.88,,109.0
2022-08-19T01:20:00,St. Mary's Bay-Centreville,,44.536239,-66.00172,2022-06-07,2022-08-22,aquaMeasure-670375,3.5,float,17.86,,107.0
2022-08-19T01:30:00,St. Mary's Bay-Centreville,,44.536239,-66.00172,2022-06-07,2022-08-22,aquaMeasure-670375,3.5,float,17.86,,106.8
2022-08-19T01:40:00,St. Mary's Bay-Centreville,,44.536239,-66.00172,2022-06-07,2022-08-22,aquaMeasure-670375,3.5,float,17.86,,107.3
2022-08-19T01:50:00,St. Mary's Bay-Centreville,,44.536239,-66.00172,2022-06-07,2022-08-22,aquaMeasure-670375,3.5,float,17.84,,106.1
2022-08-19T02:00:00,St. Mary's Bay-Centreville,,44.536239,-66.00172,2022-06-07,2022-08-22,aquaMeasure-670375,3.5,float,17.84,,107.5
2022-08-19T02:10:00,St. Mary's Bay-Centreville,,44.536239,-66.00172,2022-06-07,2022-08-22,aquaMeasure-670375,3.5,float,17.81,,107.4
2022-08-19T02:20:00,St. Mary's Bay-Centreville,,44.536239,-66.00172,2022-06-07,2022-08-22,aquaMeasure-670375,3.5,float,17.84,,107.6
2022-08-19T02:30:00,St. Mary's Bay-Centreville,,44.536239,-66.00172,2022-06-07,2022-08-22,aquaMeasure-670375,3.5,float,17.79,,108.0
2022-08-19T02:40:00,St. Mary's Bay-Centreville,,44.536239,-66.00172,2022-06-07,2022-08-22,aquaMeasure-670375,3.5,float,17.75,,107.4
2022-08-19T02:50:00,St. Mary's Bay-Centreville,,44.536239,-66.00172,2022-06-07,2022-08-22,aquaMeasure-670375,3.5,float,17.75,,108.4
2022-08-19T03:00:00,St. Mary's Bay-Centreville,,44.536239,-66.00172,2022-06-07,2022-08-22,aquaMeasure-670375,3.5,float,17.7,,108.5
2022-08-19T03:10:00,St. Mary's Bay-Centreville,,44.536239,-66.00172,2022-06-07,2022-08-22,aquaMeasure-670375,3.5,float,17.66,,108.1
2022-08-19T03:20:00,St. Mary's Bay-Centreville,,44.536239,-66.00172,2022-06-07,2022-08-22,aquaMeasure-670375,3.5,float,17.62,,106.7
2022-08-19T03:30:00,St. Mary's Bay-Centreville,,44.536239,-66.00172,2022-06-07,2022-08-22,aquaMeasure-670375,3.5,float,17.53,,107.5
2022-08-19T03:40:00,St. Mary's Bay-Centreville,,44.536239,-66.00172,2022-06-07,2022-08-22,aquaMeasure-670375,3.5,float,17.4,,107.4
2022-08-19T03:50:00,St. Mary's Bay-Centreville,,44.536239,-66.00172,2022-06-07,2022-08-22,aquaMeasure-670375,3.5,float,17.37,,107.2
2022-08-19T04:00:00,St. Mary's Bay-Centreville,,44.536239,-66.00172,2022-06-07,2022-08-22,aquaMeasure-670375,3.5,float,17.31,,106.9
2022-08-19T04:10:00,St. Mary's Bay-Centreville,,44.536239,-66.00172,2022-06-07,2022-08-22,aquaMeasure-670375,3.5,float,17.29,,106.8
2022-08-19T04:20:00,St. Mary's Bay-Centreville,,44.536239,-66.00172,2022-06-07,2022-08-22,aquaMeasure-670375,3.5,float,17.24,,106.6
2022-08-19T04:30:00,St. Mary's Bay-Centreville,,44.536239,-66.00172,2022-06-07,2022-08-22,aquaMeasure-670375,3.5,float,17.18,,107.5
2022-08-19T04:40:00,St. Mary's Bay-Centreville,,44.536239,-66.00172,2022-06-07,2022-08-22,aquaMeasure-670375,3.5,float,17.13,,107.5
2022-08-19T04:50:00,St. Mary's Bay-Centreville,,44.536239,-66.00172,2022-06-07,2022-08-22,aquaMeasure-670375,3.5,float,17.13,,106.9
2022-08-19T05:00:00,St. Mary's Bay-Centreville,,44.536239,-66.00172,2022-06-07,2022-08-22,aquaMeasure-670375,3.5,float,17.11,,107.1
2022-08-19T05:10:00,St. Mary's Bay-Centreville,,44.536239,-66.00172,2022-06-07,2022-08-22,aquaMeasure-670375,3.5,float,17.09,,107.0
2022-08-19T05:20:00,St. Mary's Bay-Centreville,,44.536239,-66.00172,2022-06-07,2022-08-22,aquaMeasure-670375,3.5,float,17.09,,106.3
2022-08-19T05:30:00,St. Mary's Bay-Centreville,,44.536239,-66.00172,2022-06-07,2022-08-22,aquaMeasure-670375,3.5,float,16.98,,106.6
2022-08-19T05:40:00,St. Mary's Bay-Centreville,,44.536239,-66.00172,2022-06-07,2022-08-22,aquaMeasure-670375,3.5,float,16.96,,107.3
2022-08-19T05:50:00,St. Mary's Bay-Centreville,,44.536239,-66.00172,2022-06-07,2022-08-22,aquaMeasure-670375,3.5,float,16.89,,105.7
2022-08-19T06:00:00,St. Mary's Bay-Centreville,,44.536239,-66.00172,2022-06-07,2022-08-22,aquaMeasure-670375,3.5,float,16.91,,107.0
2022-08-19T06:10:00,St. Mary's Bay-Centreville,,44.536239,-66.00172,2022-06-07,2022-08-22,aquaMeasure-670375,3.5,float,16.89,,106.4
2022-08-19T06:20:00,St. Mary's Bay-Centreville,,44.536239,-66.00172,2022-06-07,2022-08-22,aquaMeasure-670375,3.5,float,16.89,,106.4
2022-08-19T06:30:00,St. Mary's Bay-Centreville,,44.536239,-66.00172,2022-06-07,2022-08-22,aquaMeasure-670375,3.5,float,16.89,,106.4
2022-08-19T06:40:00,St. Mary's Bay-Centreville,,44.536239,-66.00172,2022-06-07,2022-08-22,aquaMeasure-670375,3.5,float,16.89,,106.4
2022-08-19T06:50:00,St. Mary's Bay-Centreville,,44.536239,-66.00172,2022-06-07,2022-08-22,aquaMeasure-670375,3.5,float,16.89,,105.0
2022-08-19T07:00:00,St. Mary's Bay-Centreville,,44.536239,-66.00172,2022-06-07,2022-08-22,aquaMeasure-670375,3.5,float,16.89,,106.0
2022-08-19T07:10:00,St. Mary's Bay-Centreville,,44.536239,-66.00172,2022-06-07,2022-08-22,aquaMeasure-670375,3.5,float,16.89,,105.8
2022-08-19T07:20:00,St. Mary's Bay-Centreville,,44.536239,-66.00172,2022-06-07,2022-08-22,aquaMeasure-670375,3.5,float,16.89,,104.9
2022-08-19T07:30:00,St. Mary's Bay-Centreville,,44.536239,-66.00172,2022-06-07,2022-08-22,aquaMeasure-670375,3.5,float,16.87,,106.6
2022-08-19T07:40:00,St. Mary's Bay-Centreville,,44.536239,-66.00172,2022-06-07,2022-08-22,aquaMeasure-670375,3.5,float,16.87,,105.3
2022-08-19T07:50:00,St. Mary's Bay-Centreville,,44.536239,-66.00172,2022-06-07,2022-08-22,aquaMeasure-670375,3.5,float,16.87,,104.6
2022-08-19T08:00:00,St. Mary's Bay-Centreville,,44.536239,-66.00172,2022-06-07,2022-08-22,aquaMeasure-670375,3.5,float,16.85,,105.9
2022-08-19T08:10:00,St. Mary's Bay-Centreville,,44.536239,-66.00172,2022-06-07,2022-08-22,aquaMeasure-670375,3.5,float,16.87,,103.3
2022-08-19T08:20:00,St. Mary's Bay-Centreville,,44.536239,-66.00172,2022-06-07,2022-08-22,aquaMeasure-670375,3.5,float,16.85,,105.0
2022-08-19T08:30:00,St. Mary's Bay-Centreville,,44.536239,-66.00172,2022-06-07,2022-08-22,aquaMeasure-670375,3.5,float,16.85,,106.0
2022-08-19T08:40:00,St. Mary's Bay-Centreville,,44.536239,-66.00172,2022-06-07,2022-08-22,aquaMeasure-670375,3.5,float,16.87,,104.6
2022-08-19T08:50:00,St. Mary's Bay-Centreville,,44.536239,-66.00172,2022-06-07,2022-08-22,aquaMeasure-670375,3.5,float,16.87,,105.0
2022-08-19T09:00:00,St. Mary's Bay-Centreville,,44.536239,-66.00172,2022-06-07,2022-08-22,aquaMeasure-670375,3.5,float,16.87,,105.3
2022-08-19T09:10:00,St. Mary's Bay-Centreville,,44.536239,-66.00172,2022-06-07,2022-08-22,aquaMeasure-670375,3.5,float,16.91,,104.7
2022-08-19T09:20:00,St. Mary's Bay-Centreville,,44.536239,-66.00172,2022-06-07,2022-08-22,aquaMeasure-670375,3.5,float,16.94,,104.2
2022-08-19T09:30:00,St. Mary's Bay-Centreville,,44.536239,-66.00172,2022-06-07,2022-08-22,aquaMeasure-670375,3.5,float,16.96,,104.6
2022-08-19T09:40:00,St. Mary's Bay-Centreville,,44.536239,-66.00172,2022-06-07,2022-08-22,aquaMeasure-670375,3.5,float,16.96,,105.2
2022-08-19T09:50:00,St. Mary's Bay-Centreville,,44.536239,-66.00172,2022-06-07,2022-08-22,aquaMeasure-670375,3.5,float,16.98,,104.2
2022-08-19T10:00:00,St. Mary's Bay-Centreville,,44.536239,-66.00172,2022-06-07,2022-08-22,aquaMeasure-670375,3.5,float,16.94,,105.6
2022-08-19T10:10:00,St. Mary's Bay-Centreville,,44.536239,-66.00172,2022-06-07,2022-08-22,aquaMeasure-670375,3.5,float,16.98,,105.1
2022-08-19T10:20:00,St. Mary's Bay-Centreville,,44.536239,-66.00172,2022-06-07,2022-08-22,aquaMeasure-670375,3.5,float,16.96,,105.8
2022-08-19T10:30:00,St. Mary's Bay-Centreville,,44.536239,-66.00172,2022-06-07,2022-08-22,aquaMeasure-670375,3.5,float,16.98,,105.1
2022-08-19T10:40:00,St. Mary's Bay-Centreville,,44.536239,-66.00172,2022-06-07,2022-08-22,aquaMeasure-670375,3.5,float,17.0,,105.0
2022-08-19T10:50:00,St. Mary's Bay-Centreville,,44.536239,-66.00172,2022-06-07,2022-08-22,aquaMeasure-670375,3.5,float,17.0,,105.2
2022-08-19T11:00:00,St. Mary's Bay-Centreville,,44.536239,-66.00172,2022-06-07,2022-08-22,aquaMeasure-670375,3.5,float,17.0,,104.1
2022-08-19T11:10:00,St. Mary's Bay-Centreville,,44.536239,-66.00172,2022-06-07,2022-08-22,aquaMeasure-670375,3.5,float,17.02,,105.1
2022-08-19T11:20:00,St. Mary's Bay-Centreville,,44.536239,-66.00172,2022-06-07,2022-08-22,aquaMeasure-670375,3.5,float,17.02,,106.3
2022-08-19T11:30:00,St. Mary's Bay-Centreville,,44.536239,-66.00172,2022-06-07,2022-08-22,aquaMeasure-670375,3.5,float,17.02,,105.5
2022-08-19T11:40:00,St. Mary's Bay-Centreville,,44.536239,-66.00172,2022-06-07,2022-08-22,aquaMeasure-670375,3.5,float,17.09,,105.8
2022-08-19T11:50:00,St. Mary's Bay-Centreville,,44.536239,-66.00172,2022-06-07,2022-08-22,aquaMeasure-670375,3.5,float,17.18,,105.0
2022-08-19T12:00:00,St. Mary's Bay-Centreville,,44.536239,-66.00172,2022-06-07,2022-08-22,aquaMeasure-670375,3.5,float,17.13,,105.2
2022-08-19T12:10:00,St. Mary's Bay-Centreville,,44.536239,-66.00172,2022-06-07,2022-08-22,aquaMeasure-670375,3.5,float,17.16,,103.9
2022-08-19T12:20:00,St. Mary's Bay-Centreville,,44.536239,-66.00172,2022-06-07,2022-08-22,aquaMeasure-670375,3.5,float,17.18,,103.0
2022-08-19T12:30:00,St. Mary's Bay-Centreville,,44.536239,-66.00172,2022-06-07,2022-08-22,aquaMeasure-670375,3.5,float,17.2,,101.3
2022-08-19T12:40:00,St. Mary's Bay-Centreville,,44.536239,-66.00172,2022-06-07,2022-08-22,aquaMeasure-670375,3.5,float,17.22,,98.8
2022-08-19T12:50:00,St. Mary's Bay-Centreville,,44.536239,-66.00172,2022-06-07,2022-08-22,aquaMeasure-670375,3.5,float,17.24,,99.7
2022-08-19T13:00:00,St. Mary's Bay-Centreville,,44.536239,-66.00172,2022-06-07,2022-08-22,aquaMeasure-670375,3.5,float,17.24,,98.4
2022-08-19T13:10:00,St. Mary's Bay-Centreville,,44.536239,-66.00172,2022-06-07,2022-08-22,aquaMeasure-670375,3.5,float,17.29,,99.1
2022-08-19T13:20:00,St. Mary's Bay-Centreville,,44.536239,-66.00172,2022-06-07,2022-08-22,aquaMeasure-670375,3.5,float,17.29,,98.5
2022-08-19T13:30:00,St. Mary's Bay-Centreville,,44.536239,-66.00172,2022-06-07,2022-08-22,aquaMeasure-670375,3.5,float,17.29,,98.1
2022-08-19T13:39:00,St. Mary's Bay-Centreville,,44.536239,-66.00172,2022-06-07,2022-08-22,aquaMeasure-670375,3.5,float,17.29,,99.2
2022-08-19T13:49:00,St. Mary's Bay-Centreville,,44.536239,-66.00172,2022-06-07,2022-08-22,aquaMeasure-670375,3.5,float,17.29,,98.4
2022-08-19T13:59:00,St. Mary's Bay-Centreville,,44.536239,-66.00172,2022-06-07,2022-08-22,aquaMeasure-670375,3.5,float,17.29,,99.2
2022-08-19T14:09:00,St. Mary's Bay-Centreville,,44.536239,-66.00172,2022-06-07,2022-08-22,aquaMeasure-670375,3.5,float,17.24,,101.8
2022-08-19T14:19:00,St. Mary's Bay-Centreville,,44.536239,-66.00172,2022-06-07,2022-08-22,aquaMeasure-670375,3.5,float,17.24,,101.3
2022-08-19T14:29:00,St. Mary's Bay-Centreville,,44.536239,-66.00172,2022-06-07,2022-08-22,aquaMeasure-670375,3.5,float,17.24,,102.6
2022-08-19T14:39:00,St. Mary's Bay-Centreville,,44.536239,-66.00172,2022-06-07,2022-08-22,aquaMeasure-670375,3.5,float,17.26,,101.7
2022-08-19T14:49:00,St. Mary's Bay-Centreville,,44.536239,-66.00172,2022-06-07,2022-08-22,aquaMeasure-670375,3.5,float,17.24,,101.7
2022-08-19T14:59:00,St. Mary's Bay-Centreville,,44.536239,-66.00172,2022-06-07,2022-08-22,aquaMeasure-670375,3.5,float,17.2,,101.9
2022-08-19T15:09:00,St. Mary's Bay-Centreville,,44.536239,-66.00172,2022-06-07,2022-08-22,aquaMeasure-670375,3.5,float,17.05,,104.9
2022-08-19T15:19:00,St. Mary's Bay-Centreville,,44.536239,-66.00172,2022-06-07,2022-08-22,aquaMeasure-670375,3.5,float,17.02,,105.8
2022-08-19T15:29:00,St. Mary's Bay-Centreville,,44.536239,-66.00172,2022-06-07,2022-08-22,aquaMeasure-670375,3.5,float,17.0,,106.7
2022-08-19T15:39:00,St. Mary's Bay-Centreville,,44.536239,-66.00172,2022-06-07,2022-08-22,aquaMeasure-670375,3.5,float,17.11,,106.7
2022-08-19T15:49:00,St. Mary's Bay-Centreville,,44.536239,-66.00172,2022-06-07,2022-08-22,aquaMeasure-670375,3.5,float,17.13,,106.5
2022-08-19T15:59:00,St. Mary's Bay-Centreville,,44.536239,-66.00172,2022-06-07,2022-08-22,aquaMeasure-670375,3.5,float,17.13,,108.2
2022-08-19T16:09:00,St. Mary's Bay-Centreville,,44.536239,-66.00172,2022-06-07,2022-08-22,aquaMeasure-670375,3.5,float,17.16,,107.3
2022-08-19T16:19:00,St. Mary's Bay-Centreville,,44.536239,-66.00172,2022-06-07,2022-08-22,aquaMeasure-670375,3.5,float,17.0,,109.0
2022-08-19T16:29:00,St. Mary's Bay-Centreville,,44.536239,-66.00172,2022-06-07,2022-08-22,aquaMeasure-670375,3.5,float,17.11,,110.4
2022-08-19T16:39:00,St. Mary's Bay-Centreville,,44.536239,-66.00172,2022-06-07,2022-08-22,aquaMeasure-670375,3.5,float,17.16,,111.3
2022-08-19T16:49:00,St. Mary's Bay-Centreville,,44.536239,-66.00172,2022-06-07,2022-08-22,aquaMeasure-670375,3.5,float,17.11,,111.2
2022-08-19T16:59:00,St. Mary's Bay-Centreville,,44.536239,-66.00172,2022-06-07,2022-08-22,aquaMeasure-670375,3.5,float,17.05,,110.7
2022-08-19T17:09:00,St. Mary's Bay-Centreville,,44.536239,-66.00172,2022-06-07,2022-08-22,aquaMeasure-670375,3.5,float,16.94,,108.0
2022-08-19T17:19:00,St. Mary's Bay-Centreville,,44.536239,-66.00172,2022-06-07,2022-08-22,aquaMeasure-670375,3.5,float,16.94,,109.3
2022-08-19T17:29:00,St. Mary's Bay-Centreville,,44.536239,-66.00172,2022-06-07,2022-08-22,aquaMeasure-670375,3.5,float,16.98,,108.6
2022-08-19T17:39:00,St. Mary's Bay-Centreville,,44.536239,-66.00172,2022-06-07,2022-08-22,aquaMeasure-670375,3.5,float,16.94,,108.6
2022-08-19T17:49:00,St. Mary's Bay-Centreville,,44.536239,-66.00172,2022-06-07,2022-08-22,aquaMeasure-670375,3.5,float,17.07,,109.7
2022-08-19T17:59:00,St. Mary's Bay-Centreville,,44.536239,-66.00172,2022-06-07,2022-08-22,aquaMeasure-670375,3.5,float,17.11,,109.7
2022-08-19T18:09:00,St. Mary's Bay-Centreville,,44.536239,-66.00172,2022-06-07,2022-08-22,aquaMeasure-670375,3.5,float,17.13,,108.8
2022-08-19T18:19:00,St. Mary's Bay-Centreville,,44.536239,-66.00172,2022-06-07,2022-08-22,aquaMeasure-670375,3.5,float,17.07,,108.2
2022-08-19T18:29:00,St. Mary's Bay-Centreville,,44.536239,-66.00172,2022-06-07,2022-08-22,aquaMeasure-670375,3.5,float,17.11,,108.7
2022-08-19T18:39:00,St. Mary's Bay-Centreville,,44.536239,-66.00172,2022-06-07,2022-08-22,aquaMeasure-670375,3.5,float,17.2,,110.6
2022-08-19T18:49:00,St. Mary's Bay-Centreville,,44.536239,-66.00172,2022-06-07,2022-08-22,aquaMeasure-670375,3.5,float,17.02,,108.2
2022-08-19T18:59:00,St. Mary's Bay-Centreville,,44.536239,-66.00172,2022-06-07,2022-08-22,aquaMeasure-670375,3.5,float,17.09,,109.0
2022-08-19T19:09:00,St. Mary's Bay-Centreville,,44.536239,-66.00172,2022-06-07,2022-08-22,aquaMeasure-670375,3.5,float,17.02,,108.4
2022-08-19T19:19:00,St. Mary's Bay-Centreville,,44.536239,-66.00172,2022-06-07,2022-08-22,aquaMeasure-670375,3.5,float,17.07,,108.8
2022-08-19T19:29:00,St. Mary's Bay-Centreville,,44.536239,-66.00172,2022-06-07,2022-08-22,aquaMeasure-670375,3.5,float,17.05,,108.6
2022-08-19T19:39:00,St. Mary's Bay-Centreville,,44.536239,-66.00172,2022-06-07,2022-08-22,aquaMeasure-670375,3.5,float,17.07,,109.0
2022-08-19T19:49:00,St. Mary's Bay-Centreville,,44.536239,-66.00172,2022-06-07,2022-08-22,aquaMeasure-670375,3.5,float,17.07,,108.4
2022-08-19T19:59:00,St. Mary's Bay-Centreville,,44.536239,-66.00172,2022-06-07,2022-08-22,aquaMeasure-670375,3.5,float,17.07,,106.8
2022-08-19T20:09:00,St. Mary's Bay-Centreville,,44.536239,-66.00172,2022-06-07,2022-08-22,aquaMeasure-670375,3.5,float,17.09,,105.4
2022-08-19T20:19:00,St. Mary's Bay-Centreville,,44.536239,-66.00172,2022-06-07,2022-08-22,aquaMeasure-670375,3.5,float,17.05,,107.8
2022-08-19T20:29:00,St. Mary's Bay-Centreville,,44.536239,-66.00172,2022-06-07,2022-08-22,aquaMeasure-670375,3.5,float,16.98,,105.9
2022-08-19T20:39:00,St. Mary's Bay-Centreville,,44.536239,-66.00172,2022-06-07,2022-08-22,aquaMeasure-670375,3.5,float,16.98,,105.8
2022-08-19T20:49:00,St. Mary's Bay-Centreville,,44.536239,-66.00172,2022-06-07,2022-08-22,aquaMeasure-670375,3.5,float,17.0,,106.9
2022-08-19T20:59:00,St. Mary's Bay-Centreville,,44.536239,-66.00172,2022-06-07,2022-08-22,aquaMeasure-670375,3.5,float,17.05,,109.3
2022-08-19T21:09:00,St. Mary's Bay-Centreville,,44.536239,-66.00172,2022-06-07,2022-08-22,aquaMeasure-670375,3.5,float,17.0,,107.8
2022-08-19T21:19:00,St. Mary's Bay-Centreville,,44.536239,-66.00172,2022-06-07,2022-08-22,aquaMeasure-670375,3.5,float,16.96,,106.6
2022-08-19T21:29:00,St. Mary's Bay-Centreville,,44.536239,-66.00172,2022-06-07,2022-08-22,aquaMeasure-670375,3.5,float,16.94,,107.2
2022-08-19T21:39:00,St. Mary's Bay-Centreville,,44.536239,-66.00172,2022-06-07,2022-08-22,aquaMeasure-670375,3.5,float,16.78,,106.6
2022-08-19T21:49:00,St. Mary's Bay-Centreville,,44.536239,-66.00172,2022-06-07,2022-08-22,aquaMeasure-670375,3.5,float,17.0,,108.2
2022-08-19T21:59:00,St. Mary's Bay-Centreville,,44.536239,-66.00172,2022-06-07,2022-08-22,aquaMeasure-670375,3.5,float,17.0,,107.6
2022-08-19T22:09:00,St. Mary's Bay-Centreville,,44.536239,-66.00172,2022-06-07,2022-08-22,aquaMeasure-670375,3.5,float,16.94,,107.2
2022-08-19T22:19:00,St. Mary's Bay-Centreville,,44.536239,-66.00172,2022-06-07,2022-08-22,aquaMeasure-670375,3.5,float,16.89,,107.7
2022-08-19T22:29:00,St. Mary's Bay-Centreville,,44.536239,-66.00172,2022-06-07,2022-08-22,aquaMeasure-670375,3.5,float,16.78,,104.7
2022-08-19T22:39:00,St. Mary's Bay-Centreville,,44.536239,-66.00172,2022-06-07,2022-08-22,aquaMeasure-670375,3.5,float,16.74,,104.5
2022-08-19T22:49:00,St. Mary's Bay-Centreville,,44.536239,-66.00172,2022-06-07,2022-08-22,aquaMeasure-670375,3.5,float,16.78,,105.6
2022-08-19T22:59:00,St. Mary's Bay-Centreville,,44.536239,-66.00172,2022-06-07,2022-08-22,aquaMeasure-670375,3.5,float,16.87,,107.0
2022-08-19T23:09:00,St. Mary's Bay-Centreville,,44.536239,-66.00172,2022-06-07,2022-08-22,aquaMeasure-670375,3.5,float,16.91,,108.1
2022-08-19T23:19:00,St. Mary's Bay-Centreville,,44.536239,-66.00172,2022-06-07,2022-08-22,aquaMeasure-670375,3.5,float,16.91,,107.1
2022-08-19T23:29:00,St. Mary's Bay-Centreville,,44.536239,-66.00172,2022-06-07,2022-08-22,aquaMeasure-670375,3.5,float,16.94,,108.4
2022-08-19T23:39:00,St. Mary's Bay-Centreville,,44.536239,-66.00172,2022-06-07,2022-08-22,aquaMeasure-670375,3.5,float,16.94,,107.7
2022-08-19T23:49:00,St. Mary's Bay-Centreville,,44.536239,-66.00172,2022-06-07,2022-08-22,aquaMeasure-670375,3.5,float,16.94,,108.0
2022-08-19T23:59:00,St. Mary's Bay-Centreville,,44.536239,-66.00172,2022-06-07,2022-08-22,aquaMeasure-670375,3.5,float,16.94,,108.2
